Hourly Data Report for June 04, 2021

TORONTO CITY
ONTARIO
Current Station Operator: ECCC - MSC

43°40'00.000" N
79°24'00.000" W
112.50 m
6158355
71508
XTO

Download Data

Hourly Data (June 2021)
Hourly Data Report for June 4, 2021
TIME
LST
Temp Definition
°C
Dew Point Definition
°C
Rel Hum Definition
%
Precip. Amount Definition
mm

Wind Dir Definition
10's deg

Wind Spd Definition
km/h
Visibility Definition
km
Stn Press Definition
kPa
Hmdx Definition


Wind Chill Definition


Weather Definition


00:00 16.3 15.1 93 0.0       99.73     LegendNANA
01:00 16.0 15.0 94 0.0       99.72     LegendNANA
02:00 16.0 15.2 95 0.0       99.71     LegendNANA
03:00 15.2 14.0 93 0.0       99.73     LegendNANA
04:00 15.5 14.4 93 0.0       99.73     LegendNANA
05:00 15.4 14.3 93 0.0       99.76     LegendNANA
06:00 15.7 14.6 93 0.0       99.77     LegendNANA
07:00 16.5 14.6 89 0.0       99.78     LegendNANA
08:00 17.7 14.6 82 0.0       99.83     LegendNANA
09:00 18.8 15.2 79 0.0       99.84     LegendNANA
10:00 18.8 15.4 81 0.0       99.83     LegendNANA
11:00 19.3 16.1 82 0.0       99.84     LegendNANA
12:00 22.0 16.6 72 0.0       99.80 27   LegendNANA
13:00 22.1 16.8 72 0.0       99.75 27   LegendNANA
14:00 23.4 16.4 65 0.0       99.72 28   LegendNANA
15:00 24.0 17.0 65 0.0       99.66 29   LegendNANA
16:00 25.0 16.0 57 0.0       99.63 30   LegendNANA
17:00 23.9 15.8 60 0.0       99.62 28   LegendNANA
18:00 23.2 16.3 65 0.0       99.58 28   LegendNANA
19:00 22.3 15.3 65 0.0       99.58 26   LegendNANA
20:00 22.2 14.5 62 0.0       99.59 26   LegendNANA
21:00 21.8 13.4 59 0.0       99.62 25   LegendNANA
22:00 21.1 14.8 67 0.0       99.61 25   LegendNANA
23:00 19.5 14.9 75 0.0       99.58     LegendNANA

Notes on Data Quality.

Legend

  • E = Estimated
  • M = Missing
  • NA = Not Available*
  • [empty] = Indicates an unobserved value
Date modified: